Regional Weather Roundup
Issued by NWS

Home | Current Version | Previous Version | Graphics & Text | Print | Product List | Glossary On
Versions: 1 2 3 4 5 6 7 8 9 10 11 12 13 14 15 16 17 18 19 20 21 22 23 24 25 26 27 28 29 30 31 32 33 34 35 36 37 38 39 40 41 42 43 44 45 46 47 48 49 50
000
ASUS43 KLMK 220910
RWRKY
KENTUCKY REGIONAL WEATHER ROUNDUP
NATIONAL WEATHER SERVICE LOUISVILLE KY
500 AM EDT WED OCT 22 2014

NOTE "FAIR" INDICATES FEW OR NO CLOUDS BELOW 12,000 FEET
WITH NO SIGNIFICANT WEATHER AND/OR OBSTRUCTIONS TO VISIBILITY.

KYZ001>023-026-027-061>063-070>075-221000-
WESTERN AND SOUTH CENTRAL KENTUCKY

CITY           SKY/WX    TMP DP  RH WIND       PRES   REMARKS
PADUCAH        CLEAR     44  41  89 NE5       30.19R
HENDERSON      CLEAR    N/A N/A N/A NE7       30.21R
OWENSBORO      CLEAR     46  43  90 NE8       30.21R
HOPKINSVILLE   CLEAR     42  41  98 N6        30.18R
BOWLING GREEN  CLEAR     45  40  82 NE5       30.19R
GLASGOW        CLEAR     45  40  84 CALM      30.18R
$$

KYZ024-025-028>034-038-045-046-053-221000-
NORTH CENTRAL KENTUCKY

CITY           SKY/WX    TMP DP  RH WIND       PRES   REMARKS
LOUISVILLE/SDF CLEAR     46  40  79 N8        30.22R
LOUISVILLE/LOU CLEAR     44  40  85 N3        30.23R
FORT KNOX      CLEAR     44  40  85 N6        30.19R
$$

KYZ035>037-039>044-047>052-055>060-089>105-221000-
NORTHEAST KENTUCKY

CITY           SKY/WX    TMP DP  RH WIND       PRES   REMARKS
LEXINGTON      CLOUDY    45  39  79 N5        30.19R
COVINGTON      CLOUDY    46  37  71 N7        30.20R
FRANKFORT      CLOUDY    45  37  73 N5        30.19R
$$

KYZ054-064>069-076>088-106>120-221000-
SOUTHEAST KENTUCKY

CITY           SKY/WX    TMP DP  RH WIND       PRES   REMARKS
JACKSON        CLEAR     42  39  89 N3        30.14R
LONDON         CLEAR     45  37  73 N6        30.16R
SOMERSET       CLEAR     43  37  81 NE3       30.18R
MIDDLESBORO    CLOUDY    48  42  79 N3        30.14R
MONTICELLO     SUNNY     46  42  86 N7        30.18R
$$




USA.gov is the U.S. government's official web portal to all federal, state and local government web resources and services.